Voltar ao catálogo

THOR ABLESTAR DEB

AtivoLEO
NORAD 264·DEBRIS·🇺🇸 United States

Lançado Jun 29, 1961 de Cape Canaveral Space Force Station

Loading…

Próximas Passagens (próximas 24 horas)

TLE

AtualizadoSource: Space-Track

Época: Sep 14, 2026, 06:16 UTC

1 00264U 61015CL  26257.26142795  .00001306  00000-0  44627-3 0  9999
2 00264  66.5250 354.2289 0026155 309.1054  50.7721 14.39352145346475

Acompanhe THOR ABLESTAR DEB em tempo real com AllMySat

Download on the App Store